Gillette, WY

1:48 AM MDT on October 24, 2017 (GMT -0600)
Gillette-Campbell County

Weather History for KGCC - October, 2012

Change the Weather History Date:

Wednesday, October 24, 2012

  Actual Average Record
Temperature  
Mean Temperature 30 °F 42 °F  
Max Temperature 38 °F 56 °F 80 °F (1948)
Min Temperature 22 °F 29 °F 13 °F (1942)
Degree Days  
Heating Degree Days 35 23  
Month to date heating degree days 465 447  
Since 1 July heating degree days 623 742  
Cooling Degree Days 0 0  
Month to date cooling degree days 0 0  
Year to date cooling degree days 795 500  
Moisture  
Dew Point 30 °F    
Average Humidity 93    
Maximum Humidity 100    
Minimum Humidity 85    
Precipitation  
Precipitation T in 0.03 in 1.15 in (1973)
Month to date precipitation 0.89 1.09  
Year to date precipitation 8.47 12.76  
Sea Level Pressure  
Sea Level Pressure 30.00 in    
Wind  
Wind Speed 7 mph (North)    
Max Wind Speed 15 mph    
Max Gust Speed 17 mph    
Visibility 7 miles    
Events Fog , Snow    
T = Trace of Precipitation, MM = Missing Value Source: NWS Daily Summary

Daily Weather History Graph

Daily Weather History Graph

Search for Another Location

Airport or City:

Trip Planner

Search our weather history database for the weather conditions in past years. The results will help you decide how hot, cold, wet, or windy it might be!

Date:

Astronomy

Oct. 24, 2012 Rise Set
Actual Time 7:29 AM MDT 6:02 PM MDT
Civil Twilight 6:59 AM MDT 6:32 PM MDT
Nautical Twilight 6:25 AM MDT 7:06 PM MDT
Astronomical Twilight 5:52 AM MDT 7:39 PM MDT
Moon 3:28 PM MDT 2:16 AM MDT
Length of Visible Light 11h 32m
Length of Day
10h 33m
Waxing Gibbous, 76% of the Moon is Illuminated
Oct 24
Waxing Gibbous
Oct 29
Full
Nov 6
Last Quarter
Nov 13
New
Nov 20
First Quarter

Hourly Weather History & Observations

Time (MDT) Temp. Windchill Dew Point Humidity Pressure Visibility Wind Dir Wind Speed Gust Speed Precip Events Conditions
12:07 AM 37.4 °F 34.9 °F 37.4 °F 100% 29.85 in 1.5 mi SE 3.5 mph - N/A   Overcast
12:28 AM 37.4 °F - 37.4 °F 100% 29.85 in 0.8 mi Calm Calm - N/A   Mist
12:49 AM 37.4 °F 34.9 °F 37.4 °F 100% 29.86 in 0.5 mi NNE 3.5 mph - N/A Fog Fog
12:53 AM 37.9 °F - 37.9 °F 100% 29.88 in 0.5 mi Calm Calm - N/A Fog Fog
1:26 AM 37.4 °F 34.9 °F 37.4 °F 100% 29.85 in 1.0 mi ESE 3.5 mph - N/A   Mist
1:33 AM 37.4 °F - 37.4 °F 100% 29.85 in 3.0 mi Calm Calm - N/A   Overcast
1:53 AM 37.9 °F - 37.9 °F 100% 29.86 in 10.0 mi Calm Calm - N/A   Overcast
2:08 AM 37.4 °F 34.9 °F 37.4 °F 100% 29.86 in 8.0 mi SSW 3.5 mph - N/A   Overcast
2:32 AM 37.4 °F 32.8 °F 37.4 °F 100% 29.88 in 2.5 mi NNW 5.8 mph - N/A   Overcast
2:40 AM 37.4 °F 31.4 °F 37.4 °F 100% 29.88 in 1.0 mi NNW 8.1 mph - N/A   Overcast
2:53 AM 37.0 °F 30.4 °F 37.0 °F 100% 29.90 in 0.8 mi NNW 9.2 mph - N/A   Mist
3:18 AM 37.4 °F 31.4 °F 37.4 °F 100% 29.89 in 1.8 mi North 8.1 mph - N/A   Overcast
3:22 AM 35.6 °F 29.2 °F 35.6 °F 100% 29.90 in 3.0 mi North 8.1 mph - N/A   Overcast
3:53 AM 36.0 °F 31.1 °F 36.0 °F 100% 29.93 in 10.0 mi NNW 5.8 mph - N/A   Overcast
4:53 AM 32.0 °F 25.6 °F 32.0 °F 100% 29.96 in 10.0 mi North 6.9 mph - N/A   Overcast
5:53 AM 32.0 °F 24.2 °F 30.9 °F 96% 29.99 in 7.0 mi North 9.2 mph - 0.00 in Snow Light Snow
6:05 AM 32.0 °F 24.8 °F 30.2 °F 93% 29.95 in 6.0 mi North 8.1 mph - 0.00 in Snow Light Snow
6:37 AM 30.2 °F 21.3 °F 30.2 °F 100% 29.95 in 4.0 mi North 10.4 mph - 0.00 in Snow Light Snow
6:53 AM 30.9 °F 22.2 °F 30.0 °F 96% 30.01 in 3.0 mi North 10.4 mph - 0.00 in Snow Light Snow
7:07 AM 30.2 °F 20.8 °F 30.2 °F 100% 29.96 in 5.0 mi North 11.5 mph - 0.00 in Snow Light Snow
7:23 AM 30.2 °F 20.2 °F 28.4 °F 93% 29.95 in 9.0 mi North 12.7 mph - 0.00 in   Overcast
7:53 AM 28.0 °F 18.6 °F 27.0 °F 96% 30.03 in 10.0 mi North 10.4 mph - 0.00 in   Overcast
8:32 AM 28.4 °F 18.0 °F 26.6 °F 93% 29.99 in 10.0 mi NNE 12.7 mph - N/A   Overcast
8:53 AM 28.0 °F 18.6 °F 26.1 °F 92% 30.06 in 10.0 mi North 10.4 mph - N/A   Overcast
9:51 AM 28.4 °F 19.7 °F 26.6 °F 93% 30.01 in 10.0 mi NNE 9.2 mph - N/A   Overcast
9:53 AM 28.9 °F 20.4 °F 27.0 °F 92% 30.08 in 10.0 mi NNE 9.2 mph - N/A   Overcast
10:05 AM 28.4 °F 19.1 °F 26.6 °F 93% 30.01 in 10.0 mi NNE 10.4 mph - N/A   Overcast
10:38 AM 28.4 °F 20.4 °F 26.6 °F 93% 30.01 in 10.0 mi NNE 8.1 mph - N/A   Overcast
10:53 AM 28.9 °F 19.8 °F 27.0 °F 92% 30.07 in 10.0 mi NNE 10.4 mph - N/A   Overcast
11:53 AM 30.0 °F 21.7 °F 27.0 °F 88% 30.07 in 10.0 mi North 9.2 mph - N/A   Overcast
12:53 PM 30.0 °F 22.4 °F 27.0 °F 88% 30.06 in 10.0 mi NNE 8.1 mph - N/A   Overcast
1:53 PM 30.9 °F 22.8 °F 28.0 °F 89% 30.04 in 10.0 mi North 9.2 mph - N/A   Overcast
2:46 PM 30.2 °F 21.3 °F 28.4 °F 93% 29.99 in 10.0 mi North 10.4 mph - N/A   Overcast
2:53 PM 30.2 °F 21.9 °F 26.6 °F 86% 29.99 in 10.0 mi NNE 9.2 mph - N/A   Overcast
3:53 PM 30.9 °F 23.5 °F 28.0 °F 89% 30.08 in 10.0 mi North 8.1 mph - N/A   Overcast
4:53 PM 30.9 °F 26.2 °F 28.0 °F 89% 30.11 in 10.0 mi North 4.6 mph - N/A   Overcast
5:23 PM 30.2 °F 24.3 °F 28.4 °F 93% 30.04 in 10.0 mi North 5.8 mph - N/A   Overcast
5:53 PM 30.9 °F 25.2 °F 28.0 °F 89% 30.12 in 10.0 mi NNW 5.8 mph - N/A   Mostly Cloudy
6:53 PM 28.9 °F 25.2 °F 27.0 °F 92% 30.14 in 10.0 mi NW 3.5 mph - N/A   Clear
7:53 PM 26.1 °F 21.9 °F 25.0 °F 96% 30.18 in 10.0 mi NW 3.5 mph - N/A   Scattered Clouds
8:53 PM 27.0 °F 23.0 °F 25.0 °F 92% 30.18 in 10.0 mi West 3.5 mph - N/A   Clear
9:53 PM 27.0 °F 20.5 °F 25.0 °F 92% 30.19 in 10.0 mi WNW 5.8 mph - N/A   Clear
10:53 PM 24.1 °F - 21.9 °F 91% 30.21 in 10.0 mi Calm Calm - N/A   Clear
11:53 PM 21.9 °F 14.5 °F 19.9 °F 92% 30.21 in 10.0 mi West 5.8 mph - N/A   Clear